| time (UTC) | temp F | wind direction | speed MPH | gust MPH | rain 1hr in | rain 24hr in | rain mn in | humidity % | barometer mb |
| 20260504033023 | 42 | 279 | 1.0 | 3.0 | 0.00 | 0.00 | 0.00 | 74 | 1014.4 |
| 20260504032557 | 42 | 268 | 1.0 | 3.0 | 0.00 | 0.00 | 0.00 | 72 | 1014.4 |
| 20260504032031 | 42 | 339 | 0.0 | 2.0 | 0.00 | 0.00 | 0.00 | 72 | 1014.3 |
| 20260504031507 | 43 | 339 | 1.0 | 2.0 | 0.00 | 0.00 | 0.00 | 75 | 1014.2 |
| 20260504031022 | 43 | 325 | 0.0 | 2.0 | 0.00 | 0.00 | 0.00 | 73 | 1014.2 |
| 20260504030558 | 43 | 325 | 0.0 | 2.0 | 0.00 | 0.00 | 0.00 | 73 | 1014.2 |
| 20260504030500 | 43 | 294 | 0.0 | 3.0 | 0.00 | 0.00 | 0.00 | 73 | 1014.2 |
| 20260504030026 | 44 | 288 | 0.0 | 3.0 | 0.00 | 0.00 | 0.00 | 70 | 1014.1 |
| 20260504025600 | 44 | 273 | 2.0 | 3.0 | 0.00 | 0.00 | 0.00 | 70 | 1014.1 |
| 20260504025503 | 44 | 271 | 2.0 | 3.0 | 0.00 | 0.00 | 0.00 | 69 | 1014.0 |
| 20260504025035 | 44 | 19 | 0.0 | 3.0 | 0.00 | 0.00 | 0.00 | 68 | 1013.9 |
| 20260504024550 | 44 | 34 | 1.0 | 3.0 | 0.00 | 0.00 | 0.00 | 68 | 1013.9 |
| 20260504024020 | 44 | 29 | 0.0 | 0.0 | 0.00 | 0.00 | 0.00 | 68 | 1014.0 |
| 20260504023556 | 44 | 23 | 0.0 | 0.0 | 0.00 | 0.00 | 0.00 | 68 | 1013.9 |
| 20260504023037 | 45 | 354 | 0.0 | 0.0 | 0.00 | 0.00 | 0.00 | 69 | 1013.9 |
| 20260504022506 | 45 | 354 | 0.0 | 0.0 | 0.00 | 0.00 | 0.00 | 67 | 1013.9 |
| 20260504022016 | 46 | 354 | 0.0 | 0.0 | 0.00 | 0.00 | 0.00 | 71 | 1013.9 |
| 20260504021551 | 46 | 354 | 0.0 | 0.0 | 0.00 | 0.00 | 0.00 | 68 | 1013.9 |
| 20260504021022 | 46 | 354 | 0.0 | 0.0 | 0.00 | 0.00 | 0.00 | 66 | 1013.7 |
| 20260504020600 | 46 | 354 | 0.0 | 0.0 | 0.00 | 0.00 | 0.00 | 64 | 1013.6 |
| 20260504020500 | 47 | 354 | 0.0 | 0.0 | 0.00 | 0.00 | 0.00 | 63 | 1013.6 |
| 20260504020028 | 47 | 354 | 0.0 | 0.0 | 0.00 | 0.00 | 0.00 | 58 | 1013.6 |
| 20260504015604 | 47 | 354 | 0.0 | 0.0 | 0.00 | 0.00 | 0.00 | 61 | 1013.5 |
| 20260504015504 | 48 | 354 | 0.0 | 0.0 | 0.00 | 0.00 | 0.00 | 62 | 1013.5 |
| 20260504015039 | 48 | 354 | 0.0 | 0.0 | 0.00 | 0.00 | 0.00 | 62 | 1013.5 |
| 20260504014523 | 48 | 354 | 0.0 | 0.0 | 0.00 | 0.00 | 0.00 | 62 | 1013.5 |
| 20260504014046 | 49 | 354 | 0.0 | 0.0 | 0.00 | 0.00 | 0.00 | 61 | 1013.4 |
| 20260504013518 | 49 | 354 | 0.0 | 0.0 | 0.00 | 0.00 | 0.00 | 58 | 1013.4 |
| 20260504013040 | 50 | 19 | 0.0 | 0.0 | 0.00 | 0.00 | 0.00 | 55 | 1013.3 |
| 20260504012506 | 51 | 42 | 0.0 | 0.0 | 0.00 | 0.00 | 0.00 | 50 | 1013.2 |
| 20260504012042 | 51 | 42 | 0.0 | 0.0 | 0.00 | 0.00 | 0.00 | 49 | 1013.2 |
| 20260504011512 | 51 | 42 | 0.0 | 0.0 | 0.00 | 0.00 | 0.00 | 47 | 1013.2 |
| 20260504011044 | 52 | 42 | 0.0 | 0.0 | 0.00 | 0.00 | 0.00 | 46 | 1013.1 |
| 20260504010516 | 52 | 42 | 0.0 | 0.0 | 0.00 | 0.00 | 0.00 | 45 | 1013.2 |
| 20260504010053 | 53 | 42 | 0.0 | 0.0 | 0.00 | 0.00 | 0.00 | 45 | 1013.2 |
| 20260504005522 | 53 | 42 | 0.0 | 0.0 | 0.00 | 0.00 | 0.00 | 42 | 1013.2 |
| 20260504005056 | 53 | 42 | 0.0 | 0.0 | 0.00 | 0.00 | 0.00 | 41 | 1013.2 |
| 20260504004526 | 54 | 42 | 0.0 | 0.0 | 0.00 | 0.00 | 0.00 | 42 | 1013.1 |
| 20260504004101 | 54 | 42 | 0.0 | 0.0 | 0.00 | 0.00 | 0.00 | 41 | 1013.1 |
| 20260504004003 | 54 | 42 | 0.0 | 0.0 | 0.00 | 0.00 | 0.00 | 42 | 1013.1 |
| 20260504003539 | 55 | 42 | 0.0 | 0.0 | 0.00 | 0.00 | 0.00 | 43 | 1013.1 |
| 20260504003008 | 56 | 42 | 0.0 | 0.0 | 0.00 | 0.00 | 0.00 | 41 | 1013.0 |
| 20260504002524 | 56 | 42 | 0.0 | 0.0 | 0.00 | 0.00 | 0.00 | 39 | 1012.9 |
| 20260504002058 | 57 | 42 | 0.0 | 0.0 | 0.00 | 0.00 | 0.00 | 38 | 1012.9 |
| 20260504001538 | 57 | 42 | 0.0 | 0.0 | 0.00 | 0.00 | 0.00 | 37 | 1012.8 |
| 20260504001100 | 57 | 42 | 0.0 | 1.0 | 0.00 | 0.00 | 0.00 | 36 | 1012.9 |
| 20260504001002 | 58 | 42 | 0.0 | 1.0 | 0.00 | 0.00 | 0.00 | 36 | 1012.9 |
| 20260504000536 | 58 | 42 | 0.0 | 2.0 | 0.00 | 0.00 | 0.00 | 36 | 1013.0 |
| 20260504000052 | 58 | 42 | 0.0 | 3.0 | 0.00 | 0.00 | 0.00 | 36 | 1013.0 |
| 20260503235524 | 59 | 22 | 1.0 | 4.0 | 0.00 | 0.00 | 0.00 | 36 | 1013.0 |
| 20260503235055 | 59 | 30 | 1.0 | 6.0 | 0.00 | 0.00 | 0.00 | 34 | 1012.9 |
| 20260503234524 | 59 | 39 | 3.0 | 7.0 | 0.00 | 0.00 | 0.00 | 35 | 1012.9 |
| 20260503234100 | 60 | 20 | 2.0 | 8.0 | 0.00 | 0.00 | 0.00 | 35 | 1012.8 |
| 20260503233531 | 60 | 13 | 4.0 | 8.0 | 0.00 | 0.00 | 0.00 | 34 | 1012.8 |
| 20260503233048 | 60 | 18 | 3.0 | 12.0 | 0.00 | 0.00 | 0.00 | 33 | 1012.8 |
| 20260503232514 | 60 | 45 | 6.0 | 12.0 | 0.00 | 0.00 | 0.00 | 33 | 1012.8 |
| 20260503232044 | 60 | 36 | 6.0 | 11.0 | 0.00 | 0.00 | 0.00 | 33 | 1012.7 |
| 20260503231514 | 61 | 58 | 5.0 | 9.0 | 0.00 | 0.00 | 0.00 | 34 | 1012.6 |
| 20260503231046 | 61 | 36 | 4.0 | 11.0 | 0.00 | 0.00 | 0.00 | 33 | 1012.7 |
| 20260503230503 | 61 | 54 | 7.0 | 11.0 | 0.00 | 0.00 | 0.00 | 33 | 1012.7 |
| 20260503230043 | 61 | 50 | 5.0 | 14.0 | 0.00 | 0.00 | 0.00 | 34 | 1012.6 |
| 20260503225510 | 61 | 48 | 9.0 | 15.0 | 0.00 | 0.00 | 0.00 | 33 | 1012.5 |
| 20260503225048 | 61 | 70 | 6.0 | 15.0 | 0.00 | 0.00 | 0.00 | 30 | 1012.4 |
| 20260503224514 | 61 | 48 | 7.0 | 14.0 | 0.00 | 0.00 | 0.00 | 33 | 1012.5 |
| 20260503224046 | 62 | 65 | 7.0 | 14.0 | 0.00 | 0.00 | 0.00 | 32 | 1012.5 |
| 20260503223520 | 61 | 38 | 4.0 | 10.0 | 0.00 | 0.00 | 0.00 | 33 | 1012.4 |
| 20260503223051 | 61 | 25 | 7.0 | 13.0 | 0.00 | 0.00 | 0.00 | 33 | 1012.5 |
| 20260503222528 | 61 | 49 | 6.0 | 13.0 | 0.00 | 0.00 | 0.00 | 31 | 1012.6 |
| 20260503222034 | 61 | 36 | 7.0 | 13.0 | 0.00 | 0.00 | 0.00 | 33 | 1012.6 |
| 20260503221508 | 61 | 55 | 7.0 | 16.0 | 0.00 | 0.00 | 0.00 | 32 | 1012.6 |
| 20260503221043 | 61 | 29 | 8.0 | 16.0 | 0.00 | 0.00 | 0.00 | 32 | 1012.6 |
| 20260503220514 | 61 | 32 | 5.0 | 13.0 | 0.00 | 0.00 | 0.00 | 34 | 1012.6 |
| 20260503220042 | 61 | 48 | 5.0 | 14.0 | 0.00 | 0.00 | 0.00 | 31 | 1012.6 |
| 20260503215557 | 61 | 27 | 10.0 | 15.0 | 0.00 | 0.00 | 0.00 | 32 | 1012.6 |
| 20260503215033 | 61 | 34 | 9.0 | 15.0 | 0.00 | 0.00 | 0.00 | 31 | 1012.7 |
| 20260503214508 | 61 | 63 | 10.0 | 14.0 | 0.00 | 0.00 | 0.00 | 31 | 1012.6 |
| 20260503214034 | 62 | 57 | 6.0 | 16.0 | 0.00 | 0.00 | 0.00 | 35 | 1012.7 |
| 20260503213506 | 61 | 10 | 9.0 | 17.0 | 0.00 | 0.00 | 0.00 | 35 | 1012.7 |
| 20260503213023 | 61 | 27 | 11.0 | 17.0 | 0.00 | 0.00 | 0.00 | 34 | 1012.6 |
| 20260503212554 | 61 | 48 | 6.0 | 16.0 | 0.00 | 0.00 | 0.00 | 33 | 1012.8 |
| 20260503212028 | 61 | 45 | 7.0 | 13.0 | 0.00 | 0.00 | 0.00 | 32 | 1012.8 |
| 20260503211506 | 61 | 49 | 5.0 | 14.0 | 0.00 | 0.00 | 0.00 | 36 | 1012.8 |
| 20260503211040 | 61 | 23 | 10.0 | 14.0 | 0.00 | 0.00 | 0.00 | 31 | 1012.9 |
| 20260503210509 | 61 | 17 | 9.0 | 14.0 | 0.00 | 0.00 | 0.00 | 35 | 1012.9 |
| 20260503210026 | 61 | 75 | 8.0 | 14.0 | 0.00 | 0.00 | 0.00 | 34 | 1013.0 |
| 20260503205559 | 61 | 36 | 4.0 | 15.0 | 0.00 | 0.00 | 0.00 | 33 | 1012.9 |
| 20260503205502 | 61 | 13 | 6.0 | 16.0 | 0.00 | 0.00 | 0.00 | 36 | 1012.9 |
| 20260503205036 | 60 | 47 | 10.0 | 16.0 | 0.00 | 0.00 | 0.00 | 33 | 1012.9 |
| 20260503204506 | 61 | 66 | 6.0 | 12.0 | 0.00 | 0.00 | 0.00 | 32 | 1012.8 |
| 20260503204038 | 61 | 11 | 5.0 | 11.0 | 0.00 | 0.00 | 0.00 | 32 | 1012.9 |
| 20260503203512 | 61 | 337 | 4.0 | 9.0 | 0.00 | 0.00 | 0.00 | 36 | 1013.0 |
| 20260503203053 | 61 | 28 | 4.0 | 13.0 | 0.00 | 0.00 | 0.00 | 34 | 1013.1 |
| 20260503202510 | 60 | 90 | 6.0 | 16.0 | 0.00 | 0.00 | 0.00 | 35 | 1013.0 |
| 20260503202044 | 60 | 90 | 10.0 | 16.0 | 0.00 | 0.00 | 0.00 | 32 | 1013.0 |
| 20260503201515 | 60 | 50 | 8.0 | 16.0 | 0.00 | 0.00 | 0.00 | 31 | 1013.0 |
| 20260503201028 | 60 | 50 | 5.0 | 15.0 | 0.00 | 0.00 | 0.00 | 37 | 1013.1 |
| 20260503200505 | 59 | 62 | 6.0 | 14.0 | 0.00 | 0.00 | 0.00 | 33 | 1013.2 |
| 20260503200038 | 59 | 70 | 5.0 | 19.0 | 0.00 | 0.00 | 0.00 | 35 | 1013.2 |
| 20260503195506 | 59 | 55 | 12.0 | 19.0 | 0.00 | 0.00 | 0.00 | 35 | 1013.4 |
| 20260503195037 | 59 | 51 | 8.0 | 16.0 | 0.00 | 0.00 | 0.00 | 38 | 1013.5 |
| 20260503194508 | 59 | 18 | 6.0 | 16.0 | 0.00 | 0.00 | 0.00 | 37 | 1013.7 |
| 20260503194023 | 59 | 55 | 10.0 | 18.0 | 0.00 | 0.00 | 0.00 | 31 | 1013.7 |
| 20260503193552 | 59 | 17 | 9.0 | 19.0 | 0.00 | 0.00 | 0.00 | 35 | 1013.8 |
| 20260503193032 | 59 | 25 | 10.0 | 19.0 | 0.00 | 0.00 | 0.00 | 36 | 1013.9 |
| 20260503192557 | 58 | 36 | 9.0 | 15.0 | 0.00 | 0.00 | 0.00 | 37 | 1014.0 |
| 20260503192031 | 58 | 43 | 6.0 | 15.0 | 0.00 | 0.00 | 0.00 | 33 | 1014.1 |
| 20260503191504 | 58 | 86 | 9.0 | 16.0 | 0.00 | 0.00 | 0.00 | 33 | 1014.3 |
| 20260503191039 | 58 | 100 | 10.0 | 24.0 | 0.00 | 0.00 | 0.00 | 36 | 1014.5 |
| 20260503190508 | 58 | 22 | 10.0 | 24.0 | 0.00 | 0.00 | 0.00 | 35 | 1014.4 |
| 20260503190039 | 58 | 11 | 8.0 | 16.0 | 0.00 | 0.00 | 0.00 | 39 | 1014.4 |
| 20260503185511 | 58 | 88 | 9.0 | 16.0 | 0.00 | 0.00 | 0.00 | 37 | 1014.5 |
| 20260503185049 | 58 | 75 | 8.0 | 17.0 | 0.00 | 0.00 | 0.00 | 36 | 1014.5 |
| 20260503184519 | 57 | 36 | 12.0 | 21.0 | 0.00 | 0.00 | 0.00 | 40 | 1014.5 |
| 20260503184056 | 57 | 41 | 10.0 | 21.0 | 0.00 | 0.00 | 0.00 | 37 | 1014.6 |
| 20260503183529 | 57 | 52 | 7.0 | 14.0 | 0.00 | 0.00 | 0.00 | 40 | 1014.6 |
| 20260503183057 | 57 | 58 | 5.0 | 15.0 | 0.00 | 0.00 | 0.00 | 44 | 1014.7 |
| 20260503182525 | 57 | 36 | 8.0 | 14.0 | 0.00 | 0.00 | 0.00 | 37 | 1014.7 |
| 20260503182059 | 57 | 52 | 5.0 | 17.0 | 0.00 | 0.00 | 0.00 | 38 | 1014.6 |
| 20260503182001 | 57 | 354 | 6.0 | 17.0 | 0.00 | 0.00 | 0.00 | 41 | 1014.6 |
| 20260503181533 | 56 | 352 | 8.0 | 17.0 | 0.00 | 0.00 | 0.00 | 42 | 1014.7 |
| 20260503181005 | 56 | 90 | 6.0 | 14.0 | 0.00 | 0.00 | 0.00 | 44 | 1014.8 |
| 20260503180541 | 55 | 43 | 8.0 | 17.0 | 0.00 | 0.00 | 0.00 | 38 | 1014.7 |
| 20260503180016 | 56 | 91 | 11.0 | 17.0 | 0.00 | 0.00 | 0.00 | 36 | 1014.7 |
| 20260503175529 | 56 | 48 | 9.0 | 21.0 | 0.00 | 0.00 | 0.00 | 45 | 1014.9 |
| 20260503175003 | 56 | 52 | 12.0 | 21.0 | 0.00 | 0.00 | 0.00 | 42 | 1014.9 |
| 20260503174538 | 55 | 57 | 6.0 | 14.0 | 0.00 | 0.00 | 0.00 | 44 | 1014.9 |
| 20260503174009 | 55 | 26 | 6.0 | 19.0 | 0.00 | 0.00 | 0.00 | 40 | 1014.9 |
| 20260503173539 | 55 | 61 | 12.0 | 21.0 | 0.00 | 0.00 | 0.00 | 41 | 1014.9 |
| 20260503173104 | 55 | 27 | 13.0 | 21.0 | 0.00 | 0.00 | 0.00 | 40 | 1015.0 |
| 20260503172525 | 55 | 67 | 11.0 | 19.0 | 0.00 | 0.00 | 0.00 | 43 | 1015.0 |
| 20260503172059 | 55 | 43 | 12.0 | 19.0 | 0.00 | 0.00 | 0.00 | 43 | 1015.0 |
| 20260503172003 | 55 | 45 | 9.0 | 16.0 | 0.00 | 0.00 | 0.00 | 47 | 1015.0 |
| 20260503171544 | 54 | 34 | 11.0 | 15.0 | 0.00 | 0.00 | 0.00 | 44 | 1015.0 |
| 20260503171003 | 54 | 56 | 8.0 | 12.0 | 0.00 | 0.00 | 0.00 | 43 | 1015.0 |
| 20260503170531 | 53 | 36 | 7.0 | 17.0 | 0.00 | 0.00 | 0.00 | 44 | 1015.1 |
| 20260503150554 | 49 | 27 | 11.0 | 18.0 | 0.00 | 0.00 | 0.00 | 49 | 1016.1 |
| 20260503131034 | 45 | 83 | 7.0 | 15.0 | 0.00 | 0.00 | 0.00 | 61 | 1016.7 |
| 20260503130506 | 45 | 38 | 10.0 | 16.0 | 0.00 | 0.00 | 0.00 | 62 | 1016.7 |
| 20260503110515 | 40 | 46 | 2.0 | 7.0 | 0.00 | 0.00 | 0.00 | 72 | 1015.4 |
| 20260503110106 | 40 | 71 | 2.0 | 7.0 | 0.00 | 0.00 | 0.00 | 72 | 1015.5 |
| 20260503081550 | 42 | 42 | 5.0 | 9.0 | 0.00 | 0.00 | 0.00 | 71 | 1014.1 |
| 20260503081029 | 41 | 9 | 3.0 | 9.0 | 0.00 | 0.00 | 0.00 | 72 | 1014.0 |
| 20260503080555 | 41 | 39 | 4.0 | 9.0 | 0.00 | 0.00 | 0.00 | 72 | 1013.9 |
| 20260503072545 | 40 | 52 | 3.0 | 7.0 | 0.00 | 0.00 | 0.00 | 73 | 1013.6 |
| 20260503072015 | 40 | 60 | 3.0 | 7.0 | 0.00 | 0.00 | 0.00 | 72 | 1013.5 |
| 20260503071604 | 41 | 51 | 2.0 | 6.0 | 0.00 | 0.00 | 0.00 | 72 | 1013.4 |
| 20260503071021 | 41 | 57 | 2.0 | 6.0 | 0.00 | 0.00 | 0.00 | 71 | 1013.4 |
| 20260503070554 | 41 | 65 | 2.0 | 7.0 | 0.00 | 0.00 | 0.00 | 71 | 1013.4 |
| 20260503055015 | 41 | 65 | 7.0 | 10.0 | 0.00 | 0.00 | 0.00 | 70 | 1013.0 |
| 20260503054558 | 41 | 64 | 3.0 | 8.0 | 0.00 | 0.00 | 0.00 | 71 | 1013.1 |
| 20260503054019 | 41 | 36 | 3.0 | 8.0 | 0.00 | 0.00 | 0.00 | 71 | 1013.0 |
| 20260503053553 | 41 | 40 | 2.0 | 5.0 | 0.00 | 0.00 | 0.00 | 72 | 1013.0 |
| 20260503053021 | 40 | 48 | 2.0 | 4.0 | 0.00 | 0.00 | 0.00 | 73 | 1013.1 |
| 20260503052536 | 40 | 57 | 1.0 | 4.0 | 0.00 | 0.00 | 0.00 | 75 | 1013.0 |
| 20260503052010 | 40 | 50 | 1.0 | 3.0 | 0.00 | 0.00 | 0.00 | 74 | 1013.0 |
| 20260503051539 | 41 | 42 | 0.0 | 0.0 | 0.00 | 0.00 | 0.00 | 72 | 1013.1 |
| 20260503051006 | 41 | 356 | 0.0 | 1.0 | 0.00 | 0.00 | 0.00 | 71 | 1013.1 |
| 20260503050539 | 42 | 356 | 0.0 | 1.0 | 0.00 | 0.00 | 0.00 | 71 | 1013.2 |
| 20260503050017 | 42 | 356 | 0.0 | 1.0 | 0.00 | 0.00 | 0.00 | 69 | 1013.2 |
| 20260503045524 | 42 | 356 | 0.0 | 2.0 | 0.00 | 0.00 | 0.00 | 69 | 1013.3 |
| 20260503045056 | 43 | 356 | 0.0 | 2.0 | 0.00 | 0.00 | 0.00 | 69 | 1013.3 |
| 20260503044537 | 43 | 358 | 1.0 | 2.0 | 0.00 | 0.00 | 0.00 | 66 | 1013.3 |
| 20260503044004 | 43 | 58 | 0.0 | 3.0 | 0.00 | 0.00 | 0.00 | 66 | 1013.4 |
| 20260503043541 | 43 | 65 | 0.0 | 3.0 | 0.00 | 0.00 | 0.00 | 65 | 1013.3 |
| 20260503043104 | 44 | 38 | 1.0 | 3.0 | 0.00 | 0.00 | 0.00 | 65 | 1013.3 |
| 20260503043002 | 44 | 38 | 1.0 | 3.0 | 0.00 | 0.00 | 0.00 | 65 | 1013.3 |
| 20260503042539 | 44 | 69 | 1.0 | 4.0 | 0.00 | 0.00 | 0.00 | 65 | 1013.2 |
| 20260503042009 | 44 | 77 | 0.0 | 4.0 | 0.00 | 0.00 | 0.00 | 64 | 1013.1 |
| 20260503041543 | 44 | 304 | 0.0 | 2.0 | 0.00 | 0.00 | 0.00 | 64 | 1013.2 |
| 20260503041011 | 45 | 304 | 0.0 | 2.0 | 0.00 | 0.00 | 0.00 | 63 | 1013.1 |
| 20260503040547 | 45 | 302 | 0.0 | 3.0 | 0.00 | 0.00 | 0.00 | 63 | 1013.1 |
| 20260503040016 | 45 | 123 | 0.0 | 7.0 | 0.00 | 0.00 | 0.00 | 62 | 1013.1 |
| 20260503035544 | 46 | 177 | 1.0 | 7.0 | 0.00 | 0.00 | 0.00 | 62 | 1013.0 |
| 20260503035019 | 46 | 115 | 4.0 | 6.0 | 0.00 | 0.00 | 0.00 | 61 | 1013.0 |
| 20260503034553 | 46 | 74 | 2.0 | 6.0 | 0.00 | 0.00 | 0.00 | 62 | 1013.0 |
| 20260503034013 | 46 | 90 | 2.0 | 9.0 | 0.00 | 0.00 | 0.00 | 61 | 1013.0 |
| 20260503033545 | 46 | 64 | 4.0 | 9.0 | 0.00 | 0.00 | 0.00 | 61 | 1013.1 |